Regional Weather Roundup
Issued by NWS

Home | Current Version | Previous Version | Graphics & Text | Print | Product List | Glossary On
Versions: 1 2 3 4 5 6 7 8 9 10 11 12 13 14 15 16 17 18 19 20 21 22 23 24 25 26 27 28 29 30 31 32 33 34 35 36 37 38 39 40 41 42 43 44 45 46 47 48 49 50
000
ASUS43 KLSX 091457
RWRMO

WEATHER SUMMARY FOR MISSOURI
NATIONAL WEATHER SERVICE SPRINGFIELD MO
900 AM CST FRI DEC 09 2016

NOTE: "FAIR" INDICATES FEW OR NO CLOUDS BELOW 12,000 FEET WITH NO
       SIGNIFICANT WEATHER AND/OR OBSTRUCTIONS TO VISIBILITY.
       CURRENT SKY AND/OR WEATHER CONDITIONS ARE NOT AVAILABLE FOR
       CHILLICOTHE AND FARMINGTON.

MOZ001>031-035>038-043-044-053-054-091600-
...NORTHERN AND WESTERN MISSOURI...

CITY           SKY/WX    TMP DP  RH WIND       PRES   REMARKS
KANSAS CTY INT CLOUDY    17   9  70 S3        30.64R
LEE`S SUMMIT   CLOUDY    18  10  71 CALM      30.65R
ST JOSEPH      CLOUDY    15  12  88 CALM      30.66R
CHILLICOTHE      N/A     17   9  70 N3        30.66S

$$
MOZ066>068-077>081-088>096-101>105-091600-
...SOUTHWEST MISSOURI...

CITY           SKY/WX    TMP DP  RH WIND       PRES   REMARKS
SPRINGFIELD    SUNNY     20  13  74 CALM      30.62R
JOPLIN         SUNNY     19  13  77 E6        30.66S WCI  11
BRANSON        MOSUNNY   19  10  68 CALM      30.64S

$$
MOZ032>034-039>042-045>050-055>058-069>072-091600-
...CENTRAL MISSOURI...

CITY           SKY/WX    TMP DP  RH WIND       PRES   REMARKS
COLUMBIA       NOT AVBL
JEFFERSON CITY SUNNY     17  12  80 VRB6      30.67R WCI   9
ROLLA          SUNNY     17  11  77 NW7       30.60R WCI   8
SEDALIA        MOSUNNY   18  10  71 NW5       30.66R WCI  11
WARRENSBURG    CLOUDY    18  10  73 CALM      30.66F

$$
MOZ051-052-059>065-091600-
...EAST CENTRAL MISSOURI...

CITY           SKY/WX    TMP DP  RH WIND       PRES   REMARKS
ST LOUIS INTL  MOSUNNY   22  12  65 W10       30.64R WCI  11

$$
MOZ072>076-082>087-097>100-106>115-091600-
...SOUTH CENTRAL AND SOUTHEAST MISSOURI...

CITY           SKY/WX    TMP DP  RH WIND       PRES   REMARKS
CAPE GIRARDEAU SUNNY     23  14  68 NW8       30.66R WCI  14
POPLAR BLUFF   SUNNY     23  15  71 NW7       30.68R WCI  15
WEST PLAINS    SUNNY     21  13  71 CALM      30.63R

$$



USA.gov is the U.S. government's official web portal to all federal, state and local government web resources and services.